Time,TemperatureF,DewpointF,PressureIn,WindDirection,WindDirectionDegrees,WindSpeedMPH,WindSpeedGustMPH,Humidity,HourlyPrecipIn,Conditions,Clouds,dailyrainin,SoftwareType,DateUTC
2013-02-25 00:01:00,44.5,39.7,30.10,South,174,4.0,12.0,83,0.01,,---,0.01,VWS V14.00,2013-02-25 08:01:00,
2013-02-25 00:06:00,44.7,39.5,30.10,South,169,4.0,11.0,82,0.00,,---,0.00,VWS V14.00,2013-02-25 08:06:00,
2013-02-25 00:11:00,44.9,39.8,30.10,SW,223,7.0,11.0,82,0.00,,---,0.00,VWS V14.00,2013-02-25 08:11:00,
2013-02-25 00:16:00,45.0,39.5,30.10,WSW,240,10.0,13.0,81,0.00,,---,0.00,VWS V14.00,2013-02-25 08:16:00,
2013-02-25 00:21:00,45.1,39.3,30.10,SSW,203,15.0,15.0,80,0.00,,---,0.00,VWS V14.00,2013-02-25 08:21:00,
2013-02-25 00:26:00,45.3,39.5,30.10,South,189,8.0,17.0,80,0.00,,---,0.00,VWS V14.00,2013-02-25 08:26:00,
2013-02-25 00:31:00,45.4,39.6,30.10,SSW,202,8.0,17.0,80,0.00,,---,0.00,VWS V14.00,2013-02-25 08:31:00,
2013-02-25 00:36:00,45.4,39.6,30.10,SSW,206,7.0,13.0,80,0.00,,---,0.00,VWS V14.00,2013-02-25 08:36:00,
2013-02-25 00:41:00,45.3,39.5,30.09,South,185,7.0,13.0,80,0.00,,---,0.00,VWS V14.00,2013-02-25 08:41:00,
2013-02-25 00:46:00,45.1,40.2,30.09,SSW,204,5.0,13.0,83,0.01,,---,0.01,VWS V14.00,2013-02-25 08:46:00,
2013-02-25 00:51:00,44.7,40.2,30.09,SSW,194,6.0,13.0,84,0.01,,---,0.01,VWS V14.00,2013-02-25 08:51:00,
2013-02-25 00:56:00,44.5,40.3,30.08,SSW,202,3.0,13.0,85,0.01,,---,0.01,VWS V14.00,2013-02-25 08:56:00,
2013-02-25 01:01:00,44.3,40.4,30.08,NW,305,6.0,13.0,86,0.02,,---,0.02,VWS V14.00,2013-02-25 09:01:00,
2013-02-25 01:06:00,44.3,40.4,30.08,SSW,202,2.0,11.0,86,0.02,,---,0.02,VWS V14.00,2013-02-25 09:06:00,
2013-02-25 01:11:00,44.3,40.4,30.08,SSW,211,5.0,11.0,86,0.02,,---,0.02,VWS V14.00,2013-02-25 09:11:00,
2013-02-25 01:16:00,44.2,40.3,30.08,SE,146,9.0,16.0,86,0.02,,---,0.02,VWS V14.00,2013-02-25 09:16:00,
2013-02-25 01:21:00,44.3,40.4,30.08,South,171,5.0,16.0,86,0.02,,---,0.02,VWS V14.00,2013-02-25 09:21:00,
2013-02-25 01:26:00,44.4,40.5,30.08,South,184,5.0,16.0,86,0.02,,---,0.02,VWS V14.00,2013-02-25 09:26:00,
2013-02-25 01:31:00,44.4,40.5,30.07,SSW,194,8.0,16.0,86,0.03,,---,0.03,VWS V14.00,2013-02-25 09:31:00,
2013-02-25 01:36:00,44.4,40.8,30.08,SSW,202,8.0,11.0,87,0.03,,---,0.03,VWS V14.00,2013-02-25 09:36:00,
2013-02-25 01:41:00,44.5,40.6,30.08,South,184,5.0,12.0,86,0.03,,---,0.03,VWS V14.00,2013-02-25 09:41:00,
2013-02-25 01:46:00,44.7,40.8,30.08,SSW,201,5.0,15.0,86,0.03,,---,0.03,VWS V14.00,2013-02-25 09:46:00,
2013-02-25 01:51:00,44.6,41.0,30.08,SW,219,7.0,15.0,87,0.04,,---,0.04,VWS V14.00,2013-02-25 09:51:00,
2013-02-25 01:56:00,44.3,40.7,30.08,South,175,5.0,15.0,87,0.05,,---,0.05,VWS V14.00,2013-02-25 09:56:00,
2013-02-25 02:01:00,44.1,40.8,30.08,South,190,10.0,15.0,88,0.06,,---,0.06,VWS V14.00,2013-02-25 10:01:00,
2013-02-25 02:06:00,43.9,40.9,30.08,SW,218,7.0,8.0,89,0.05,,---,0.07,VWS V14.00,2013-02-25 10:06:00,
2013-02-25 02:11:00,43.7,41.0,30.09,SSW,204,4.0,12.0,90,0.05,,---,0.07,VWS V14.00,2013-02-25 10:11:00,
2013-02-25 02:16:00,43.7,41.0,30.09,South,187,6.0,12.0,90,0.06,,---,0.08,VWS V14.00,2013-02-25 10:16:00,
2013-02-25 02:21:00,43.6,40.9,30.09,SW,215,3.0,18.0,90,0.07,,---,0.09,VWS V14.00,2013-02-25 10:21:00,
2013-02-25 02:26:00,43.5,41.0,30.10,SW,223,8.0,18.0,91,0.07,,---,0.09,VWS V14.00,2013-02-25 10:26:00,
2013-02-25 02:31:00,43.4,41.0,30.10,SE,137,11.0,18.0,91,0.07,,---,0.09,VWS V14.00,2013-02-25 10:31:00,
2013-02-25 02:36:00,43.2,41.0,30.10,SW,225,5.0,16.0,92,0.07,,---,0.10,VWS V14.00,2013-02-25 10:36:00,
2013-02-25 02:41:00,43.1,40.9,30.11,South,172,6.0,16.0,92,0.07,,---,0.10,VWS V14.00,2013-02-25 10:41:00,
2013-02-25 02:46:00,43.1,41.2,30.11,SW,215,11.0,16.0,93,0.07,,---,0.10,VWS V14.00,2013-02-25 10:46:00,
2013-02-25 02:51:00,43.0,41.1,30.11,SSW,211,7.0,16.0,93,0.07,,---,0.10,VWS V14.00,2013-02-25 10:51:00,
2013-02-25 02:56:00,43.1,41.2,30.11,SSW,207,7.0,16.0,93,0.07,,---,0.10,VWS V14.00,2013-02-25 10:56:00,
2013-02-25 03:01:00,43.1,41.2,30.12,SW,224,5.0,16.0,93,0.07,,---,0.10,VWS V14.00,2013-02-25 11:01:00,
2013-02-25 03:06:00,42.9,41.0,30.12,SSW,207,6.0,9.0,93,0.04,,---,0.10,VWS V14.00,2013-02-25 11:06:00,
2013-02-25 03:11:00,42.9,41.0,30.12,SSW,203,6.0,10.0,93,0.04,,---,0.10,VWS V14.00,2013-02-25 11:11:00,
2013-02-25 03:16:00,42.8,40.9,30.12,SW,223,6.0,10.0,93,0.04,,---,0.10,VWS V14.00,2013-02-25 11:16:00,
2013-02-25 03:21:00,42.7,40.8,30.13,South,191,3.0,10.0,93,0.04,,---,0.10,VWS V14.00,2013-02-25 11:21:00,
2013-02-25 03:26:00,42.6,40.7,30.13,South,181,2.0,10.0,93,0.04,,---,0.10,VWS V14.00,2013-02-25 11:26:00,
2013-02-25 03:31:00,42.4,40.5,30.13,South,186,1.0,10.0,93,0.04,,---,0.10,VWS V14.00,2013-02-25 11:31:00,
2013-02-25 03:36:00,42.3,40.7,30.14,SSE,165,2.0,2.0,94,0.01,,---,0.10,VWS V14.00,2013-02-25 11:36:00,
2013-02-25 03:41:00,42.3,40.7,30.14,South,178,1.0,3.0,94,0.01,,---,0.10,VWS V14.00,2013-02-25 11:41:00,
2013-02-25 03:46:00,42.3,40.7,30.15,South,191,1.0,3.0,94,0.01,,---,0.10,VWS V14.00,2013-02-25 11:46:00,
2013-02-25 03:51:00,42.3,40.7,30.15,South,180,0.0,3.0,94,0.01,,---,0.10,VWS V14.00,2013-02-25 11:51:00,
2013-02-25 03:56:00,42.3,40.7,30.16,SSW,201,2.0,4.0,94,0.01,,---,0.10,VWS V14.00,2013-02-25 11:56:00,
2013-02-25 04:01:00,42.4,40.8,30.16,SSW,201,0.0,4.0,94,0.01,,---,0.10,VWS V14.00,2013-02-25 12:01:00,
2013-02-25 04:06:00,42.4,41.1,30.17,SSW,201,0.0,0.0,95,0.00,,---,0.10,VWS V14.00,2013-02-25 12:06:00,
2013-02-25 04:11:00,42.2,40.9,30.17,SSW,201,0.0,0.0,95,0.00,,---,0.10,VWS V14.00,2013-02-25 12:11:00,
2013-02-25 04:16:00,42.1,40.8,30.17,SSW,201,0.0,0.0,95,0.00,,---,0.10,VWS V14.00,2013-02-25 12:16:00,
2013-02-25 04:22:00,42.1,40.8,30.17,SSW,201,1.0,1.0,95,0.01,,---,0.11,VWS V14.00,2013-02-25 12:22:00,
2013-02-25 04:27:00,42.2,40.9,30.17,SSE,168,2.0,2.0,95,0.01,,---,0.11,VWS V14.00,2013-02-25 12:27:00,
2013-02-25 04:32:00,42.2,40.9,30.18,SSW,198,0.0,2.0,95,0.01,,---,0.11,VWS V14.00,2013-02-25 12:32:00,
2013-02-25 04:37:00,42.1,40.8,30.18,SSW,204,1.0,3.0,95,0.01,,---,0.11,VWS V14.00,2013-02-25 12:37:00,
2013-02-25 04:42:00,41.9,40.6,30.18,South,173,2.0,4.0,95,0.01,,---,0.11,VWS V14.00,2013-02-25 12:42:00,
2013-02-25 04:47:00,41.9,40.6,30.18,South,175,1.0,4.0,95,0.01,,---,0.11,VWS V14.00,2013-02-25 12:47:00,
2013-02-25 04:52:00,41.8,40.5,30.18,South,176,0.0,4.0,95,0.01,,---,0.11,VWS V14.00,2013-02-25 12:52:00,
2013-02-25 04:57:00,41.7,40.1,30.18,South,186,0.0,4.0,94,0.01,,---,0.11,VWS V14.00,2013-02-25 12:57:00,
2013-02-25 05:02:00,41.6,40.3,30.19,SE,141,2.0,2.0,95,0.01,,---,0.11,VWS V14.00,2013-02-25 13:02:00,
2013-02-25 05:07:00,41.6,40.3,30.19,SE,135,1.0,4.0,95,0.01,,---,0.11,VWS V14.00,2013-02-25 13:07:00,
2013-02-25 05:12:00,41.5,40.2,30.19,SSE,155,0.0,4.0,95,0.01,,---,0.11,VWS V14.00,2013-02-25 13:12:00,
2013-02-25 05:17:00,41.5,39.9,30.19,SE,134,4.0,4.0,94,0.01,,---,0.11,VWS V14.00,2013-02-25 13:17:00,
2013-02-25 05:22:00,41.4,39.8,30.19,South,170,1.0,4.0,94,0.01,,---,0.11,VWS V14.00,2013-02-25 13:22:00,
2013-02-25 05:27:00,41.4,39.8,30.19,SSW,204,0.0,4.0,94,0.01,,---,0.11,VWS V14.00,2013-02-25 13:27:00,
2013-02-25 05:32:00,41.3,39.7,30.20,SSW,194,1.0,1.0,94,0.00,,---,0.11,VWS V14.00,2013-02-25 13:32:00,
2013-02-25 05:37:00,41.4,39.8,30.20,SE,131,4.0,4.0,94,0.00,,---,0.11,VWS V14.00,2013-02-25 13:37:00,
2013-02-25 05:43:00,41.5,39.9,30.20,South,171,4.0,8.0,94,0.00,,---,0.11,VWS V14.00,2013-02-25 13:43:00,
2013-02-25 05:48:00,41.6,39.7,30.20,SW,224,2.0,8.0,93,0.00,,---,0.11,VWS V14.00,2013-02-25 13:48:00,
2013-02-25 05:53:00,41.6,39.7,30.20,SW,228,3.0,8.0,93,0.00,,---,0.11,VWS V14.00,2013-02-25 13:53:00,
2013-02-25 05:58:00,41.6,39.7,30.21,SSW,194,2.0,8.0,93,0.01,,---,0.12,VWS V14.00,2013-02-25 13:58:00,
2013-02-25 06:03:00,41.5,39.9,30.21,SW,216,2.0,3.0,94,0.01,,---,0.12,VWS V14.00,2013-02-25 14:03:00,
2013-02-25 06:08:00,41.4,39.8,30.21,SW,225,2.0,4.0,94,0.01,,---,0.12,VWS V14.00,2013-02-25 14:08:00,
2013-02-25 06:13:00,41.3,39.7,30.21,SSW,198,2.0,6.0,94,0.01,,---,0.12,VWS V14.00,2013-02-25 14:13:00,
2013-02-25 06:18:00,41.3,39.7,30.22,South,188,3.0,7.0,94,0.01,,---,0.12,VWS V14.00,2013-02-25 14:18:00,
2013-02-25 06:23:00,41.3,39.7,30.22,SSE,163,7.0,7.0,94,0.01,,---,0.12,VWS V14.00,2013-02-25 14:23:00,
2013-02-25 06:28:00,41.3,39.4,30.22,SW,220,4.0,7.0,93,0.01,,---,0.12,VWS V14.00,2013-02-25 14:28:00,
2013-02-25 06:33:00,41.3,39.4,30.22,South,187,3.0,5.0,93,0.01,,---,0.12,VWS V14.00,2013-02-25 14:33:00,
2013-02-25 06:38:00,41.2,39.3,30.23,SSW,196,1.0,5.0,93,0.01,,---,0.12,VWS V14.00,2013-02-25 14:38:00,
2013-02-25 06:43:00,41.1,39.2,30.23,SSW,207,2.0,6.0,93,0.01,,---,0.12,VWS V14.00,2013-02-25 14:43:00,
2013-02-25 06:48:00,41.1,39.2,30.23,South,190,3.0,6.0,93,0.01,,---,0.12,VWS V14.00,2013-02-25 14:48:00,
2013-02-25 06:53:00,41.1,39.0,30.23,SW,219,2.0,6.0,92,0.01,,---,0.12,VWS V14.00,2013-02-25 14:53:00,
2013-02-25 06:58:00,41.1,39.2,30.23,SSW,209,3.0,6.0,93,0.01,,---,0.12,VWS V14.00,2013-02-25 14:58:00,
2013-02-25 07:03:00,41.1,39.2,30.23,SSW,207,1.0,4.0,93,0.00,,---,0.12,VWS V14.00,2013-02-25 15:03:00,
2013-02-25 07:08:00,41.0,39.1,30.23,SSW,201,3.0,4.0,93,0.00,,---,0.12,VWS V14.00,2013-02-25 15:08:00,
2013-02-25 07:13:00,41.0,39.1,30.23,SSW,213,2.0,4.0,93,0.00,,---,0.12,VWS V14.00,2013-02-25 15:13:00,
2013-02-25 07:18:00,41.0,39.1,30.23,SSW,213,3.0,5.0,93,0.00,,---,0.12,VWS V14.00,2013-02-25 15:18:00,
2013-02-25 07:23:00,41.1,39.2,30.23,SSW,194,2.0,6.0,93,0.00,,---,0.12,VWS V14.00,2013-02-25 15:23:00,
2013-02-25 07:29:00,41.1,39.2,30.24,WSW,242,4.0,8.0,93,0.00,,---,0.12,VWS V14.00,2013-02-25 15:29:00,
2013-02-25 07:34:00,41.3,39.4,30.24,SSW,198,6.0,6.0,93,0.00,,---,0.12,VWS V14.00,2013-02-25 15:34:00,
2013-02-25 07:39:00,41.2,39.1,30.24,WSW,244,1.0,8.0,92,0.00,,---,0.12,VWS V14.00,2013-02-25 15:39:00,
2013-02-25 07:44:00,41.2,39.1,30.24,SW,217,2.0,8.0,92,0.00,,---,0.12,VWS V14.00,2013-02-25 15:44:00,
2013-02-25 07:49:00,41.1,38.7,30.24,South,184,4.0,8.0,91,0.00,,---,0.12,VWS V14.00,2013-02-25 15:49:00,
2013-02-25 07:54:00,41.0,38.6,30.24,SSW,201,4.0,8.0,91,0.00,,---,0.12,VWS V14.00,2013-02-25 15:54:00,
2013-02-25 07:59:00,41.0,38.9,30.24,SSW,192,5.0,8.0,92,0.00,,---,0.12,VWS V14.00,2013-02-25 15:59:00,
2013-02-25 08:04:00,41.1,39.2,30.25,SSW,198,5.0,6.0,93,0.00,,---,0.12,VWS V14.00,2013-02-25 16:04:00,
2013-02-25 08:09:00,41.3,39.4,30.25,SSW,199,1.0,6.0,93,0.00,,---,0.12,VWS V14.00,2013-02-25 16:09:00,
2013-02-25 08:14:00,41.4,39.5,30.26,SSW,192,2.0,6.0,93,0.00,,---,0.12,VWS V14.00,2013-02-25 16:14:00,
2013-02-25 08:19:00,41.5,39.6,30.26,SSW,200,3.0,6.0,93,0.00,,---,0.12,VWS V14.00,2013-02-25 16:19:00,
2013-02-25 08:24:00,41.7,39.8,30.26,SW,225,4.0,8.0,93,0.00,,---,0.12,VWS V14.00,2013-02-25 16:24:00,
2013-02-25 08:29:00,41.8,39.7,30.26,South,191,3.0,8.0,92,0.00,,---,0.12,VWS V14.00,2013-02-25 16:29:00,
2013-02-25 08:34:00,41.9,39.8,30.26,SSW,208,5.0,10.0,92,0.00,,---,0.12,VWS V14.00,2013-02-25 16:34:00,
2013-02-25 08:39:00,42.1,39.7,30.26,South,185,2.0,10.0,91,0.00,,---,0.12,VWS V14.00,2013-02-25 16:39:00,
2013-02-25 08:44:00,42.1,39.7,30.26,SSW,198,5.0,10.0,91,0.00,,---,0.12,VWS V14.00,2013-02-25 16:44:00,
2013-02-25 08:49:00,42.1,39.4,30.26,SW,225,4.0,11.0,90,0.00,,---,0.12,VWS V14.00,2013-02-25 16:49:00,
2013-02-25 08:54:00,42.2,39.5,30.27,SSW,196,4.0,11.0,90,0.00,,---,0.12,VWS V14.00,2013-02-25 16:54:00,
2013-02-25 08:59:00,42.3,39.9,30.27,SW,217,4.0,11.0,91,0.00,,---,0.12,VWS V14.00,2013-02-25 16:59:00,
2013-02-25 09:04:00,42.4,40.0,30.27,South,172,5.0,6.0,91,0.00,,---,0.12,VWS V14.00,2013-02-25 17:04:00,
2013-02-25 09:09:00,42.4,40.0,30.28,South,182,4.0,8.0,91,0.00,,---,0.12,VWS V14.00,2013-02-25 17:09:00,
2013-02-25 09:14:00,42.4,39.7,30.28,South,183,5.0,8.0,90,0.00,,---,0.12,VWS V14.00,2013-02-25 17:14:00,
2013-02-25 09:19:00,42.3,39.9,30.28,SSW,209,4.0,8.0,91,0.00,,---,0.12,VWS V14.00,2013-02-25 17:19:00,
2013-02-25 09:24:00,42.3,39.6,30.28,SW,219,5.0,10.0,90,0.00,,---,0.12,VWS V14.00,2013-02-25 17:24:00,
2013-02-25 09:29:00,42.4,39.7,30.27,SSW,209,5.0,10.0,90,0.00,,---,0.12,VWS V14.00,2013-02-25 17:29:00,
2013-02-25 09:34:00,42.4,39.7,30.28,South,185,4.0,8.0,90,0.00,,---,0.12,VWS V14.00,2013-02-25 17:34:00,
2013-02-25 09:39:00,42.4,39.7,30.28,SSW,199,4.0,8.0,90,0.00,,---,0.12,VWS V14.00,2013-02-25 17:39:00,
2013-02-25 09:44:00,42.4,39.7,30.28,SW,215,4.0,9.0,90,0.00,,---,0.12,VWS V14.00,2013-02-25 17:44:00,
2013-02-25 09:49:00,42.5,39.8,30.28,SW,215,4.0,9.0,90,0.00,,---,0.12,VWS V14.00,2013-02-25 17:49:00,
2013-02-25 09:54:00,42.7,40.0,30.28,South,190,6.0,9.0,90,0.00,,---,0.12,VWS V14.00,2013-02-25 17:54:00,
2013-02-25 09:59:00,42.7,39.7,30.28,SSW,192,5.0,9.0,89,0.00,,---,0.12,VWS V14.00,2013-02-25 17:59:00,
2013-02-25 10:04:00,42.8,40.1,30.28,South,178,5.0,9.0,90,0.00,,---,0.12,VWS V14.00,2013-02-25 18:04:00,
2013-02-25 10:09:00,42.9,39.9,30.29,SE,144,7.0,11.0,89,0.00,,---,0.12,VWS V14.00,2013-02-25 18:09:00,
2013-02-25 10:14:00,43.0,40.3,30.29,SSW,208,3.0,11.0,90,0.00,,---,0.12,VWS V14.00,2013-02-25 18:14:00,
2013-02-25 10:19:00,43.2,40.2,30.29,SSE,158,5.0,11.0,89,0.00,,---,0.12,VWS V14.00,2013-02-25 18:19:00,
2013-02-25 10:24:00,43.6,40.9,30.29,South,187,4.0,11.0,90,0.00,,---,0.12,VWS V14.00,2013-02-25 18:24:00,
2013-02-25 10:29:00,44.0,40.7,30.29,SW,223,6.0,13.0,88,0.00,,---,0.12,VWS V14.00,2013-02-25 18:29:00,
2013-02-25 10:34:00,44.6,41.3,30.29,SW,217,6.0,13.0,88,0.00,,---,0.12,VWS V14.00,2013-02-25 18:34:00,
2013-02-25 10:39:00,44.5,41.2,30.29,SSW,208,6.0,13.0,88,0.00,,---,0.12,VWS V14.00,2013-02-25 18:39:00,
2013-02-25 10:44:00,44.2,40.3,30.29,South,186,5.0,13.0,86,0.00,,---,0.12,VWS V14.00,2013-02-25 18:44:00,
2013-02-25 10:49:00,44.0,40.4,30.29,South,187,5.0,13.0,87,0.00,,---,0.12,VWS V14.00,2013-02-25 18:49:00,
2013-02-25 10:54:00,43.9,40.3,30.30,SSW,198,4.0,13.0,87,0.00,,---,0.12,VWS V14.00,2013-02-25 18:54:00,
2013-02-25 10:59:00,44.0,40.7,30.30,WSW,238,3.0,13.0,88,0.00,,---,0.12,VWS V14.00,2013-02-25 18:59:00,
2013-02-25 11:04:00,44.0,40.4,30.30,SW,227,2.0,5.0,87,0.00,,---,0.12,VWS V14.00,2013-02-25 19:04:00,
2013-02-25 11:09:00,43.8,39.9,30.30,SW,223,2.0,7.0,86,0.00,,---,0.12,VWS V14.00,2013-02-25 19:09:00,
2013-02-25 11:14:00,43.8,39.9,30.30,SSW,205,2.0,8.0,86,0.00,,---,0.12,VWS V14.00,2013-02-25 19:14:00,
2013-02-25 11:19:00,44.0,39.8,30.30,South,178,7.0,8.0,85,0.00,,---,0.12,VWS V14.00,2013-02-25 19:19:00,
2013-02-25 11:24:00,44.3,39.8,30.30,South,186,6.0,10.0,84,0.00,,---,0.12,VWS V14.00,2013-02-25 19:24:00,
2013-02-25 11:30:00,44.6,39.8,30.30,South,173,2.0,10.0,83,0.00,,---,0.12,VWS V14.00,2013-02-25 19:30:00,
2013-02-25 11:35:00,44.9,40.4,30.30,SSE,165,6.0,11.0,84,0.00,,---,0.12,VWS V14.00,2013-02-25 19:35:00,
2013-02-25 11:40:00,45.4,40.9,30.30,SSE,167,6.0,11.0,84,0.00,,---,0.12,VWS V14.00,2013-02-25 19:40:00,
2013-02-25 11:45:00,45.7,40.5,30.30,South,182,6.0,11.0,82,0.00,,---,0.12,VWS V14.00,2013-02-25 19:45:00,
2013-02-25 11:50:00,45.7,40.2,30.30,SSE,166,4.0,11.0,81,0.00,,---,0.12,VWS V14.00,2013-02-25 19:50:00,
2013-02-25 11:55:00,45.5,40.3,30.30,SW,214,5.0,11.0,82,0.00,,---,0.12,VWS V14.00,2013-02-25 19:55:00,
2013-02-25 12:00:00,45.4,40.5,30.30,South,186,4.0,11.0,83,0.00,,---,0.12,VWS V14.00,2013-02-25 20:00:00,
2013-02-25 12:05:00,45.5,40.7,30.29,South,187,6.0,9.0,83,0.00,,---,0.12,VWS V14.00,2013-02-25 20:05:00,
2013-02-25 12:10:00,46.0,41.1,30.30,SSW,194,3.0,9.0,83,0.00,,---,0.12,VWS V14.00,2013-02-25 20:10:00,
2013-02-25 12:15:00,46.2,41.0,30.29,WSW,237,5.0,11.0,82,0.00,,---,0.12,VWS V14.00,2013-02-25 20:15:00,
2013-02-25 12:20:00,46.3,40.5,30.29,SW,218,9.0,11.0,80,0.00,,---,0.12,VWS V14.00,2013-02-25 20:20:00,
2013-02-25 12:25:00,46.0,40.5,30.29,SW,221,5.0,11.0,81,0.00,,---,0.12,VWS V14.00,2013-02-25 20:25:00,
2013-02-25 12:30:00,45.9,40.1,30.29,South,178,7.0,11.0,80,0.00,,---,0.12,VWS V14.00,2013-02-25 20:30:00,
2013-02-25 12:35:00,46.3,41.1,30.29,SSW,205,9.0,9.0,82,0.00,,---,0.12,VWS V14.00,2013-02-25 20:35:00,
2013-02-25 12:40:00,46.7,39.5,30.29,SSE,163,8.0,15.0,76,0.00,,---,0.12,VWS V14.00,2013-02-25 20:40:00,
2013-02-25 12:45:00,47.3,40.5,30.29,SW,229,2.0,15.0,77,0.00,,---,0.12,VWS V14.00,2013-02-25 20:45:00,
2013-02-25 12:50:00,47.7,40.2,30.28,SSW,194,3.0,15.0,75,0.00,,---,0.12,VWS V14.00,2013-02-25 20:50:00,
2013-02-25 12:55:00,47.9,40.0,30.28,South,190,4.0,15.0,74,0.00,,---,0.12,VWS V14.00,2013-02-25 20:55:00,
2013-02-25 13:00:00,48.2,40.7,30.28,SW,219,8.0,15.0,75,0.00,,---,0.12,VWS V14.00,2013-02-25 21:00:00,
2013-02-25 13:05:00,48.4,39.8,30.28,South,171,7.0,11.0,72,0.00,,---,0.12,VWS V14.00,2013-02-25 21:05:00,
2013-02-25 13:10:00,48.5,40.6,30.28,West,263,0.0,13.0,74,0.00,,---,0.12,VWS V14.00,2013-02-25 21:10:00,
2013-02-25 13:15:00,48.6,40.7,30.29,NNE,20,0.0,13.0,74,0.00,,---,0.12,VWS V14.00,2013-02-25 21:15:00,
2013-02-25 13:20:00,47.3,41.1,30.30,South,179,1.0,13.0,79,0.01,,---,0.13,VWS V14.00,2013-02-25 21:20:00,
2013-02-25 13:25:00,45.6,40.1,30.30,South,190,0.0,13.0,81,0.01,,---,0.13,VWS V14.00,2013-02-25 21:25:00,
2013-02-25 13:30:00,44.9,40.7,30.30,ESE,121,1.0,13.0,85,0.01,,---,0.13,VWS V14.00,2013-02-25 21:30:00,
2013-02-25 13:35:00,44.7,40.8,30.30,SW,224,0.0,2.0,86,0.01,,---,0.13,VWS V14.00,2013-02-25 21:35:00,
2013-02-25 13:40:00,44.7,41.1,30.30,SSW,209,3.0,4.0,87,0.01,,---,0.13,VWS V14.00,2013-02-25 21:40:00,
2013-02-25 13:45:00,45.2,41.0,30.29,SSW,209,1.0,4.0,85,0.01,,---,0.13,VWS V14.00,2013-02-25 21:45:00,
2013-02-25 13:50:00,45.8,40.0,30.30,SW,215,1.0,4.0,80,0.01,,---,0.13,VWS V14.00,2013-02-25 21:50:00,
2013-02-25 13:55:00,46.2,40.1,30.30,WSW,245,1.0,6.0,79,0.01,,---,0.13,VWS V14.00,2013-02-25 21:55:00,
2013-02-25 14:00:00,46.3,40.5,30.30,NNE,26,0.0,6.0,80,0.01,,---,0.13,VWS V14.00,2013-02-25 22:00:00,
2013-02-25 14:05:00,45.4,40.2,30.31,SW,230,0.0,5.0,82,0.02,,---,0.14,VWS V14.00,2013-02-25 22:05:00,
2013-02-25 14:10:00,44.4,40.2,30.31,SW,219,0.0,5.0,85,0.02,,---,0.14,VWS V14.00,2013-02-25 22:10:00,
2013-02-25 14:15:00,43.9,40.6,30.31,SW,219,0.0,5.0,88,0.03,,---,0.15,VWS V14.00,2013-02-25 22:15:00,
2013-02-25 14:20:00,44.1,41.7,30.30,NW,308,0.0,5.0,91,0.03,,---,0.15,VWS V14.00,2013-02-25 22:20:00,
2013-02-25 14:25:00,44.9,42.2,30.30,West,281,0.0,5.0,90,0.03,,---,0.15,VWS V14.00,2013-02-25 22:25:00,
2013-02-25 14:30:00,45.7,42.1,30.30,SW,223,0.0,5.0,87,0.03,,---,0.15,VWS V14.00,2013-02-25 22:30:00,
2013-02-25 14:35:00,46.3,42.3,30.30,SW,216,2.0,3.0,86,0.02,,---,0.15,VWS V14.00,2013-02-25 22:35:00,
2013-02-25 14:40:00,46.9,41.1,30.30,SW,215,1.0,8.0,80,0.02,,---,0.15,VWS V14.00,2013-02-25 22:40:00,
2013-02-25 14:45:00,47.2,41.0,30.29,SW,221,2.0,8.0,79,0.02,,---,0.15,VWS V14.00,2013-02-25 22:45:00,
2013-02-25 14:50:00,47.7,41.5,30.29,SSW,207,0.0,8.0,79,0.02,,---,0.15,VWS V14.00,2013-02-25 22:50:00,
2013-02-25 14:55:00,48.2,41.3,30.29,NNE,12,0.0,8.0,77,0.02,,---,0.15,VWS V14.00,2013-02-25 22:55:00,
2013-02-25 15:00:00,48.6,39.3,30.30,ENE,68,0.0,8.0,70,0.02,,---,0.15,VWS V14.00,2013-02-25 23:00:00,
2013-02-25 15:06:00,48.9,39.9,30.29,SW,228,4.0,6.0,71,0.02,,---,0.15,VWS V14.00,2013-02-25 23:06:00,
2013-02-25 15:11:00,49.1,40.5,30.29,West,281,0.0,6.0,72,0.02,,---,0.15,VWS V14.00,2013-02-25 23:11:00,
2013-02-25 15:16:00,49.5,39.4,30.30,SW,236,1.0,6.0,68,0.02,,---,0.15,VWS V14.00,2013-02-25 23:16:00,
2013-02-25 15:21:00,49.1,37.9,30.30,SW,227,2.0,6.0,65,0.02,,---,0.15,VWS V14.00,2013-02-25 23:21:00,
2013-02-25 15:26:00,48.2,37.8,30.30,SW,224,2.0,6.0,67,0.02,,---,0.15,VWS V14.00,2013-02-25 23:26:00,
2013-02-25 15:31:00,47.8,37.8,30.31,SW,232,3.0,6.0,68,0.02,,---,0.15,VWS V14.00,2013-02-25 23:31:00,
2013-02-25 15:36:00,47.6,38.0,30.31,SW,227,3.0,5.0,69,0.00,,---,0.15,VWS V14.00,2013-02-25 23:36:00,
2013-02-25 15:41:00,47.3,38.4,30.31,WSW,237,3.0,7.0,71,0.00,,---,0.15,VWS V14.00,2013-02-25 23:41:00,
2013-02-25 15:46:00,46.9,38.7,30.32,SSW,211,2.0,7.0,73,0.00,,---,0.15,VWS V14.00,2013-02-25 23:46:00,
2013-02-25 15:51:00,46.5,38.7,30.32,SW,229,3.0,7.0,74,0.00,,---,0.15,VWS V14.00,2013-02-25 23:51:00,
2013-02-25 15:56:00,46.2,39.1,30.33,WSW,240,4.0,8.0,76,0.00,,---,0.15,VWS V14.00,2013-02-25 23:56:00,
2013-02-25 16:01:00,46.0,39.5,30.33,WSW,244,0.0,8.0,78,0.00,,---,0.15,VWS V14.00,2013-02-26 00:01:00,
2013-02-25 16:06:00,45.9,39.1,30.33,ENE,75,0.0,4.0,77,0.00,,---,0.15,VWS V14.00,2013-02-26 00:06:00,
2013-02-25 16:11:00,45.6,39.2,30.33,SSW,195,1.0,4.0,78,0.00,,---,0.15,VWS V14.00,2013-02-26 00:11:00,
2013-02-25 16:16:00,45.1,39.3,30.32,SW,219,3.0,4.0,80,0.00,,---,0.15,VWS V14.00,2013-02-26 00:16:00,
2013-02-25 16:21:00,45.0,39.5,30.32,SW,222,0.0,5.0,81,0.00,,---,0.15,VWS V14.00,2013-02-26 00:21:00,
2013-02-25 16:26:00,45.1,39.6,30.33,SW,224,2.0,5.0,81,0.00,,---,0.15,VWS V14.00,2013-02-26 00:26:00,
2013-02-25 16:31:00,45.1,39.3,30.33,SW,232,0.0,5.0,80,0.00,,---,0.15,VWS V14.00,2013-02-26 00:31:00,
2013-02-25 16:36:00,45.0,39.2,30.33,SSW,202,0.0,3.0,80,0.00,,---,0.15,VWS V14.00,2013-02-26 00:36:00,
2013-02-25 16:41:00,44.8,39.0,30.33,South,187,1.0,4.0,80,0.00,,---,0.15,VWS V14.00,2013-02-26 00:41:00,
2013-02-25 16:46:00,44.5,39.0,30.33,SW,220,2.0,4.0,81,0.00,,---,0.15,VWS V14.00,2013-02-26 00:46:00,
2013-02-25 16:51:00,44.4,38.9,30.33,SW,218,2.0,4.0,81,0.00,,---,0.15,VWS V14.00,2013-02-26 00:51:00,
2013-02-25 16:56:00,44.3,39.2,30.33,SW,233,0.0,4.0,82,0.00,,---,0.15,VWS V14.00,2013-02-26 00:56:00,
2013-02-25 17:01:00,44.3,39.2,30.33,East,88,1.0,4.0,82,0.00,,---,0.15,VWS V14.00,2013-02-26 01:01:00,
2013-02-25 17:06:00,44.3,39.2,30.34,SW,227,0.0,2.0,82,0.00,,---,0.15,VWS V14.00,2013-02-26 01:06:00,
2013-02-25 17:11:00,44.3,39.2,30.34,SW,227,1.0,2.0,82,0.00,,---,0.15,VWS V14.00,2013-02-26 01:11:00,
2013-02-25 17:16:00,44.2,39.1,30.34,SW,227,0.0,2.0,82,0.00,,---,0.15,VWS V14.00,2013-02-26 01:16:00,
2013-02-25 17:21:00,44.0,38.9,30.34,North,5,3.0,3.0,82,0.00,,---,0.15,VWS V14.00,2013-02-26 01:21:00,
2013-02-25 17:26:00,43.7,38.6,30.34,SSW,200,0.0,4.0,82,0.00,,---,0.15,VWS V14.00,2013-02-26 01:26:00,
2013-02-25 17:31:00,43.5,38.4,30.34,SW,233,0.0,4.0,82,0.00,,---,0.15,VWS V14.00,2013-02-26 01:31:00,
2013-02-25 17:36:00,43.2,38.4,30.34,SW,233,0.0,0.0,83,0.00,,---,0.15,VWS V14.00,2013-02-26 01:36:00,
2013-02-25 17:41:00,43.0,38.2,30.34,SW,219,0.0,4.0,83,0.00,,---,0.15,VWS V14.00,2013-02-26 01:41:00,
2013-02-25 17:46:00,42.8,38.0,30.35,SE,141,0.0,4.0,83,0.00,,---,0.15,VWS V14.00,2013-02-26 01:46:00,
2013-02-25 17:51:00,42.6,37.8,30.35,SE,141,0.0,4.0,83,0.00,,---,0.15,VWS V14.00,2013-02-26 01:51:00,
2013-02-25 17:56:00,42.3,37.8,30.35,SSE,155,1.0,4.0,84,0.00,,---,0.15,VWS V14.00,2013-02-26 01:56:00,
2013-02-25 18:01:00,42.0,37.8,30.35,South,169,0.0,4.0,85,0.00,,---,0.15,VWS V14.00,2013-02-26 02:01:00,
2013-02-25 18:07:00,41.8,37.9,30.35,South,169,0.0,4.0,86,0.00,,---,0.15,VWS V14.00,2013-02-26 02:07:00,
2013-02-25 18:12:00,41.7,37.8,30.35,South,180,2.0,5.0,86,0.00,,---,0.15,VWS V14.00,2013-02-26 02:12:00,
2013-02-25 18:17:00,41.7,37.8,30.35,SSW,204,0.0,6.0,86,0.00,,---,0.15,VWS V14.00,2013-02-26 02:17:00,
2013-02-25 18:22:00,41.7,37.8,30.35,SSW,208,0.0,6.0,86,0.00,,---,0.15,VWS V14.00,2013-02-26 02:22:00,
2013-02-25 18:27:00,41.6,37.7,30.35,SSW,196,3.0,6.0,86,0.00,,---,0.15,VWS V14.00,2013-02-26 02:27:00,
2013-02-25 18:32:00,41.5,37.6,30.35,South,169,2.0,6.0,86,0.00,,---,0.15,VWS V14.00,2013-02-26 02:32:00,
2013-02-25 18:37:00,41.4,37.5,30.35,SSW,204,2.0,4.0,86,0.00,,---,0.15,VWS V14.00,2013-02-26 02:37:00,
2013-02-25 18:42:00,41.2,37.6,30.35,SSE,159,4.0,4.0,87,0.00,,---,0.15,VWS V14.00,2013-02-26 02:42:00,
2013-02-25 18:47:00,41.0,37.7,30.36,South,186,1.0,4.0,88,0.00,,---,0.15,VWS V14.00,2013-02-26 02:47:00,
2013-02-25 18:52:00,40.9,37.9,30.36,South,175,1.0,4.0,89,0.00,,---,0.15,VWS V14.00,2013-02-26 02:52:00,
2013-02-25 18:57:00,40.7,37.7,30.36,SSW,202,1.0,4.0,89,0.00,,---,0.15,VWS V14.00,2013-02-26 02:57:00,
2013-02-25 19:02:00,40.5,37.5,30.37,SSW,202,0.0,4.0,89,0.00,,---,0.15,VWS V14.00,2013-02-26 03:02:00,
2013-02-25 19:07:00,40.3,37.6,30.37,SSW,202,0.0,1.0,90,0.00,,---,0.15,VWS V14.00,2013-02-26 03:07:00,
2013-02-25 19:12:00,40.1,37.4,30.37,SSW,202,0.0,1.0,90,0.00,,---,0.15,VWS V14.00,2013-02-26 03:12:00,
2013-02-25 19:17:00,40.0,37.3,30.37,SSW,202,1.0,1.0,90,0.00,,---,0.15,VWS V14.00,2013-02-26 03:17:00,
2013-02-25 19:22:00,39.9,37.2,30.37,SSW,202,0.0,1.0,90,0.00,,---,0.15,VWS V14.00,2013-02-26 03:22:00,
2013-02-25 19:27:00,39.8,37.1,30.37,SSW,202,0.0,2.0,90,0.00,,---,0.15,VWS V14.00,2013-02-26 03:27:00,
2013-02-25 19:32:00,39.8,37.1,30.37,SSW,202,0.0,0.0,90,0.00,,---,0.15,VWS V14.00,2013-02-26 03:32:00,
2013-02-25 19:37:00,39.9,37.5,30.37,SSW,196,1.0,2.0,91,0.00,,---,0.15,VWS V14.00,2013-02-26 03:37:00,
2013-02-25 19:42:00,40.0,37.6,30.37,SSE,155,2.0,4.0,91,0.00,,---,0.15,VWS V14.00,2013-02-26 03:42:00,
2013-02-25 19:47:00,40.1,37.4,30.37,SSE,154,1.0,4.0,90,0.00,,---,0.15,VWS V14.00,2013-02-26 03:47:00,
2013-02-25 19:52:00,40.2,37.8,30.37,SW,232,1.0,4.0,91,0.00,,---,0.15,VWS V14.00,2013-02-26 03:52:00,
2013-02-25 19:57:00,40.2,37.8,30.37,SSW,201,2.0,4.0,91,0.00,,---,0.15,VWS V14.00,2013-02-26 03:57:00,
2013-02-25 20:02:00,40.0,37.6,30.37,SW,219,0.0,0.0,91,0.00,,---,0.15,VWS V14.00,2013-02-26 04:02:00,
2013-02-25 20:07:00,39.8,37.4,30.37,SW,219,0.0,0.0,91,0.00,,---,0.15,VWS V14.00,2013-02-26 04:07:00,
2013-02-25 20:12:00,39.7,37.3,30.38,SSW,200,1.0,3.0,91,0.00,,---,0.15,VWS V14.00,2013-02-26 04:12:00,
2013-02-25 20:17:00,39.6,37.5,30.38,SSW,200,0.0,3.0,92,0.00,,---,0.15,VWS V14.00,2013-02-26 04:17:00,
2013-02-25 20:22:00,39.4,37.3,30.38,South,184,0.0,3.0,92,0.00,,---,0.15,VWS V14.00,2013-02-26 04:22:00,
2013-02-25 20:27:00,39.3,37.2,30.38,SE,145,1.0,3.0,92,0.00,,---,0.15,VWS V14.00,2013-02-26 04:27:00,
2013-02-25 20:32:00,39.2,37.1,30.38,SE,145,0.0,0.0,92,0.00,,---,0.15,VWS V14.00,2013-02-26 04:32:00,
2013-02-25 20:37:00,39.2,37.1,30.38,SE,145,0.0,0.0,92,0.00,,---,0.15,VWS V14.00,2013-02-26 04:37:00,
2013-02-25 20:42:00,39.1,37.0,30.38,SSW,213,1.0,2.0,92,0.00,,---,0.15,VWS V14.00,2013-02-26 04:42:00,
2013-02-25 20:47:00,39.0,36.9,30.38,SSW,213,0.0,2.0,92,0.00,,---,0.15,VWS V14.00,2013-02-26 04:47:00,
2013-02-25 20:52:00,38.9,36.8,30.38,SSW,213,0.0,2.0,92,0.00,,---,0.15,VWS V14.00,2013-02-26 04:52:00,
2013-02-25 20:57:00,38.8,37.0,30.38,SSW,213,0.0,2.0,93,0.00,,---,0.15,VWS V14.00,2013-02-26 04:57:00,
2013-02-25 21:00:00,38.9,37.0,30.39,SSW,198,0.0,2.0,93,0.00,,---,0.15,VWS V14.00,2013-02-26 05:00:00,
2013-02-25 21:05:00,38.8,37.0,30.39,SSW,198,1.0,1.0,93,0.00,,---,0.15,VWS V14.00,2013-02-26 05:05:00,
2013-02-25 21:10:00,38.6,36.8,30.39,SSW,198,1.0,1.0,93,0.00,,---,0.15,VWS V14.00,2013-02-26 05:10:00,
2013-02-25 21:15:00,38.6,36.8,30.39,SW,232,1.0,2.0,93,0.00,,---,0.15,VWS V14.00,2013-02-26 05:15:00,
2013-02-25 21:20:00,38.5,36.7,30.40,SW,217,1.0,3.0,93,0.00,,---,0.15,VWS V14.00,2013-02-26 05:20:00,
2013-02-25 21:26:00,38.4,36.3,30.40,SW,214,1.0,3.0,92,0.00,,---,0.15,VWS V14.00,2013-02-26 05:26:00,
2013-02-25 21:31:00,38.2,36.4,30.40,SW,214,0.0,3.0,93,0.00,,---,0.15,VWS V14.00,2013-02-26 05:31:00,
2013-02-25 21:36:00,38.2,36.4,30.40,SW,232,0.0,2.0,93,0.00,,---,0.15,VWS V14.00,2013-02-26 05:36:00,
2013-02-25 21:41:00,38.2,36.4,30.40,SW,232,0.0,2.0,93,0.00,,---,0.15,VWS V14.00,2013-02-26 05:41:00,
2013-02-25 21:46:00,38.3,36.7,30.40,SSW,202,1.0,2.0,94,0.00,,---,0.15,VWS V14.00,2013-02-26 05:46:00,
2013-02-25 21:51:00,38.3,36.5,30.40,SSW,195,0.0,2.0,93,0.00,,---,0.15,VWS V14.00,2013-02-26 05:51:00,
2013-02-25 21:56:00,38.2,36.4,30.40,SW,219,0.0,2.0,93,0.00,,---,0.15,VWS V14.00,2013-02-26 05:56:00,
2013-02-25 22:01:00,38.2,36.6,30.40,SE,130,1.0,4.0,94,0.00,,---,0.15,VWS V14.00,2013-02-26 06:01:00,
2013-02-25 22:06:00,38.2,36.4,30.40,SE,138,0.0,2.0,93,0.00,,---,0.15,VWS V14.00,2013-02-26 06:06:00,
2013-02-25 22:11:00,38.0,36.2,30.40,SE,138,0.0,2.0,93,0.00,,---,0.15,VWS V14.00,2013-02-26 06:11:00,
2013-02-25 22:16:00,37.8,36.0,30.40,SE,138,1.0,2.0,93,0.00,,---,0.15,VWS V14.00,2013-02-26 06:16:00,
2013-02-25 22:21:00,37.7,35.9,30.40,SE,138,0.0,2.0,93,0.00,,---,0.15,VWS V14.00,2013-02-26 06:21:00,
2013-02-25 22:26:00,37.6,35.8,30.40,SE,138,0.0,2.0,93,0.00,,---,0.15,VWS V14.00,2013-02-26 06:26:00,
2013-02-25 22:31:00,37.4,35.6,30.40,SE,138,0.0,2.0,93,0.00,,---,0.15,VWS V14.00,2013-02-26 06:31:00,
2013-02-25 22:36:00,37.3,35.7,30.40,SE,138,0.0,0.0,94,0.00,,---,0.15,VWS V14.00,2013-02-26 06:36:00,
2013-02-25 22:41:00,37.1,35.5,30.40,SE,138,0.0,0.0,94,0.00,,---,0.15,VWS V14.00,2013-02-26 06:41:00,
2013-02-25 22:46:00,37.1,35.5,30.40,SSW,194,1.0,2.0,94,0.00,,---,0.15,VWS V14.00,2013-02-26 06:46:00,
2013-02-25 22:51:00,37.0,35.4,30.40,South,173,1.0,2.0,94,0.00,,---,0.15,VWS V14.00,2013-02-26 06:51:00,
2013-02-25 22:56:00,36.9,35.3,30.40,SSE,165,0.0,2.0,94,0.00,,---,0.15,VWS V14.00,2013-02-26 06:56:00,
2013-02-25 23:01:00,36.9,35.3,30.40,SSE,165,0.0,2.0,94,0.00,,---,0.15,VWS V14.00,2013-02-26 07:01:00,
2013-02-25 23:06:00,37.0,35.4,30.40,SSE,165,1.0,2.0,94,0.00,,---,0.15,VWS V14.00,2013-02-26 07:06:00,
2013-02-25 23:11:00,36.9,35.3,30.40,SSE,165,0.0,2.0,94,0.00,,---,0.15,VWS V14.00,2013-02-26 07:11:00,
2013-02-25 23:16:00,36.9,35.3,30.40,SSE,165,0.0,2.0,94,0.00,,---,0.15,VWS V14.00,2013-02-26 07:16:00,
2013-02-25 23:21:00,36.9,35.3,30.40,SSE,165,0.0,2.0,94,0.00,,---,0.15,VWS V14.00,2013-02-26 07:21:00,
2013-02-25 23:26:00,36.8,35.2,30.41,SSE,165,0.0,2.0,94,0.00,,---,0.15,VWS V14.00,2013-02-26 07:26:00,
2013-02-25 23:31:00,36.4,34.6,30.41,SSE,165,0.0,2.0,93,0.00,,---,0.15,VWS V14.00,2013-02-26 07:31:00,
2013-02-25 23:36:00,36.1,34.5,30.41,SSE,165,0.0,0.0,94,0.00,,---,0.15,VWS V14.00,2013-02-26 07:36:00,
2013-02-25 23:41:00,35.8,34.2,30.41,SSE,165,0.0,0.0,94,0.00,,---,0.15,VWS V14.00,2013-02-26 07:41:00,
2013-02-25 23:46:00,35.5,34.0,30.41,SSE,165,0.0,0.0,94,0.00,,---,0.15,VWS V14.00,2013-02-26 07:46:00,
2013-02-25 23:51:00,35.1,33.5,30.41,SSE,165,0.0,2.0,94,0.00,,---,0.15,VWS V14.00,2013-02-26 07:51:00,
2013-02-25 23:56:00,34.9,33.3,30.42,SSE,165,0.0,2.0,94,0.00,,---,0.15,VWS V14.00,2013-02-26 07:56:00,